Home   Weather   Fort Smith   Past weeks
Flag for Canada

Past Weather in Fort Smith, Northwest Territories, Canada — Yesterday and Last 2 Weeks

Now
36 °F

Overcast.


Feels Like: 27 °F
Forecast: 36 / 27 °F
Wind: 13 mph from Southeast

Location: Fort Smith

Current Time: Oct 15, 2019 at 3:32:33 pm

Latest Report: Oct 15, 2019 at 2:00 pm


Visibility: 15 mi

Pressure: 30.10 "Hg

Humidity: 65%

Dew Point: 25 °F

Location of Fort SmithLocation

Past Weather in Fort Smith — Graph

°F

Fort Smith Temperature Yesterday

Maximum temperature yesterday: 34 °F (at 1:00 pm)
Minimum temperature yesterday: 28 °F (at 2:00 am)
Average temperature yesterday: 31 °F

High & Low Weather Summary for the Past Weeks

 TemperatureHumidityPressure
High59 °F (Oct 3, 3:00 pm)100% (Oct 5, 6:00 am)30.33 "Hg (Oct 5, 6:00 am)
Low25 °F (Oct 9, 8:00 pm)34% (Sep 30, 4:00 pm)29.23 "Hg (Oct 7, 8:00 am)
Average38 °F76%29.88 "Hg
* Reported Sep 30 2:00 pm — Oct 15 2:00 pm, Fort Smith. Weather by CustomWeather, © 2019

Note: Actual official high and low records may vary slightly from our data, if they occured in-between our weather recording intervals... More about our weather records

Advertising

Fort Smith Weather History for the Previous 24 Hours

Scroll right to see more
 ConditionsComfort  
Time TempWeatherWind HumidityBarometerVisibility
2:00 pm
Tue, Oct 15
36 °FOvercast.13 mph65%30.10 "Hg15 mi
1:00 pm36 °FMore clouds than sun.15 mph65%30.14 "Hg15 mi
12:00 pm36 °FOvercast.14 mph65%30.16 "Hg15 mi
11:01 am34 °FOvercast.13 mph70%30.18 "Hg15 mi
10:00 am32 °FMore clouds than sun.10 mph75%30.19 "Hg15 mi
9:00 am30 °FOvercast.10 mph80%30.23 "Hg15 mi
4:00 am30 °FOvercast.7 mph80%30.27 "Hg15 mi
3:00 am30 °FOvercast.9 mph80%30.28 "Hg15 mi
2:00 am30 °FOvercast.9 mph75%30.29 "Hg15 mi
1:00 am30 °FOvercast.7 mph75%30.29 "Hg15 mi
12:00 am30 °FOvercast.5 mph75%30.29 "Hg15 mi
11:00 pm
Mon, Oct 14
32 °FOvercast.6 mph69%30.29 "Hg15 mi
10:00 pm32 °FOvercast.3 mph75%30.30 "Hg15 mi
9:00 pm32 °FOvercast.No wind69%30.30 "Hg15 mi
8:00 pm32 °FOvercast.No wind69%30.29 "Hg15 mi
7:00 pm32 °FOvercast.No wind75%30.28 "Hg15 mi
6:00 pm32 °FPartly sunny.2 mph75%30.28 "Hg15 mi
5:00 pm34 °FPartly sunny.6 mph70%30.27 "Hg15 mi
4:00 pm34 °FPartly sunny.2 mph65%30.26 "Hg15 mi
3:00 pm34 °FPartly sunny.No wind65%30.25 "Hg15 mi
Weather by CustomWeather, © 2019

See weather overview